Home > Weather > Besançon > Past weeks

Flag for France Past Weather in Besançon, Franche-Comté, France — Yesterday and Last 2 Weeks

Now
55 °F

Light rain. Mostly cloudy.


Feels Like: 52 °F
Forecast: 48 / 67 °F
Wind: 14 mph from Southwest

Location: Dole Tavaux

Current Time: May 31, 2016 at 6:13:24 AM

Latest Report: May 31, 2016 at 5:30 AM


Visibility: N/A

Pressure: 29.83 "Hg

Humidity: 94%

Dew Point: 54 °F

Location of BesançonLocation

Past Weather in Besançon — Graph

°F

Besançon Temperature Yesterday

Maximum temperature yesterday: 59 °F (at 12:00 AM)
Minimum temperature yesterday: 55 °F (at 8:30 PM)
Average temperature yesterday: 57 °F

High & Low Weather Summary for the Past Weeks

 TemperatureHumidityPressure
High79 °F (May 21, 7:00 PM)100% (May 16, 4:00 AM)30.21 "Hg (May 16, 4:00 AM)
Low39 °F (May 16, 4:00 AM)43% (May 18, 4:30 PM)29.71 "Hg (May 29, 8:30 AM)
Average58 °F82%29.96 "Hg
* Reported May 16 4:00 AM — May 31 4:30 AM, Besançon, Weather by CustomWeather, © 2016

Note: Actual official high and low records may vary slightly from our data, if they occured in-between our weather recording intervals... More about our weather records

Advertising

Besançon Weather History for the Previous 24 Hours

Scroll right to see more
 ConditionsComfort  
Time TempWeatherWind HumidityBarometerVisibility
4:30 AM
Tue, May 31
55 °FLight rain. Mostly cloudy.14 mph94%29.83 "HgN/A
4:00 AM55 °FLight rain. Mostly cloudy.15 mph94%29.83 "HgN/A
3:30 AM55 °FLight rain. Mostly cloudy.15 mph94%29.83 "HgN/A
3:00 AM55 °FRain. Mostly cloudy.16 mph94%29.83 "HgN/A
2:30 AM55 °FRain. Mostly cloudy.14 mph94%29.83 "HgN/A
2:00 AM55 °FLight rain. Overcast.16 mph94%29.83 "HgN/A
1:30 AM55 °FRain. Mostly cloudy.15 mph94%29.83 "HgN/A
1:00 AM55 °FLight rain. Mostly cloudy.15 mph94%29.83 "HgN/A
12:30 AM55 °FLight rain. Mostly cloudy.14 mph94%29.83 "HgN/A
12:00 AM55 °FLight rain. Mostly cloudy.13 mph94%29.83 "HgN/A
11:30 PM
Mon, May 30
55 °FLight rain. Partly cloudy.13 mph94%29.83 "HgN/A
11:00 PM55 °FLight rain. Mostly cloudy.15 mph94%29.83 "HgN/A
10:30 PM55 °FLight rain. Mostly cloudy.14 mph94%29.83 "HgN/A
10:00 PM55 °FLight rain. Mostly cloudy.13 mph94%29.83 "HgN/A
9:30 PM55 °FLight rain. Low clouds.13 mph94%29.83 "HgN/A
9:00 PM55 °FLight rain. Mostly cloudy.13 mph100%29.83 "HgN/A
8:30 PM55 °FLight rain. Partly sunny.13 mph100%29.83 "HgN/A
8:00 PM57 °FLight rain. Low clouds.13 mph94%29.83 "HgN/A
7:30 PM57 °FLight rain. Partly sunny.14 mph94%29.83 "HgN/A
7:00 PM57 °FLight rain. Cloudy.12 mph94%29.83 "HgN/A
6:00 PM57 °FLight rain. Mostly cloudy.12 mph94%29.83 "HgN/A
5:30 PM57 °FLight rain. Mostly cloudy.14 mph94%29.83 "HgN/A
5:00 PM57 °FLight rain. Partly sunny.15 mph88%29.83 "HgN/A
4:30 PM59 °FLight rain. Cloudy.16 mph88%29.83 "HgN/A
4:00 PM59 °FLight rain. Broken clouds.16 mph88%29.83 "HgN/A
3:30 PM59 °FLight rain. Low clouds.14 mph94%29.80 "HgN/A
3:00 PM57 °FLight rain. Mostly cloudy.14 mph94%29.80 "HgN/A
2:30 PM59 °FLight rain. Overcast.16 mph94%29.80 "HgN/A
2:00 PM59 °FDrizzle. Overcast.15 mph88%29.80 "HgN/A
1:30 PM59 °FMostly cloudy.15 mph88%29.80 "HgN/A
1:00 PM59 °FMostly cloudy.16 mph88%29.80 "HgN/A
12:30 PM57 °FOvercast.16 mph94%29.80 "HgN/A
12:00 PM57 °FOvercast.16 mph94%29.80 "HgN/A
11:30 AM57 °FMostly cloudy.15 mph94%29.80 "HgN/A
11:00 AM57 °FLight rain. Overcast.15 mph94%29.80 "HgN/A
10:30 AM57 °FLight rain. Overcast.15 mph94%29.77 "HgN/A
10:00 AM57 °FDrizzle. Overcast.14 mph94%29.77 "HgN/A
9:30 AM57 °FOvercast.15 mph94%29.77 "HgN/A
9:00 AM57 °FOvercast.16 mph94%29.77 "HgN/A
8:30 AM57 °FOvercast.15 mph94%29.77 "HgN/A
8:00 AM57 °FLight rain. Overcast.14 mph94%29.77 "HgN/A
7:30 AM57 °FLight rain. Overcast.13 mph94%29.77 "HgN/A
7:00 AM57 °FLight rain. Overcast.14 mph94%29.77 "HgN/A
6:30 AM57 °FLight rain. Overcast.14 mph94%29.77 "HgN/A
6:00 AM57 °FOvercast.14 mph94%29.77 "HgN/A
Weather by CustomWeather, © 2016

See weather overviewHow to use our weather pages